Showing default

YAM-3, 48915

Orbit data source: Space-Track

YAM-3, 48915 is a payload satellite owned by Loft Orbital (US) in SSO that was launched on Wed, 30 Jun 2021 UTC via an FALCON 9 launch vehicle from the Air Force Eastern Test Range (AFETR). Payload-class satellites include a variety of spacecraft equipped with specific instruments for various scientific and technological missions. These include communications satellites like Starlink; space stations such as the ISS; scientific satellites like the Hubble; Earth observation satellites from companies like Planet Labs, Umbra, and HawkEye 360; GPS; miniature CubeSats for education and research; and military/defense satellites.

Loading next visibility...
Identifier
48915, 2021-059AN
Orbit
SSO
Country
Flag of USUS
Related business
Manufacturer
Blue Canyon
Mission
Operational Commercial Technology
Bus & Motor
YAM, Unknown motor
Mass
~80 kg wet, ~80 kg dry
Launch date (UTC)
2021-06-30 (4 years ago)
Launch vehicle
FALCON 9
Launch site
Air Force Eastern Test Range (AFETR)
Object type
Payload
Rocket body
Debris
Shape & HBR
Box + 2 Pan, 1.0 m
Radar Cross Section
0.446 m², Medium (>0.1 m² and < 1m²)

Expand to show TLE details & history
Last TLE update: 17 hours ago

TLE from 17 hours ago
0 YAM-3
1 48915U 21059AN  25340.44732749  .00023767  00000-0  54225-3 0  9994
2 48915  97.6925 150.6088 0005442 343.3686  16.7381 15.42884956247217
Epoch: 2025-12-06T10:44Z
TLE epoch observation values (Epoch: 2025-12-06T10:44:09.095Z)
Latitude
-0.00003°
Longitude
-85.90403°
Altitude
437.16 km
Speed
7.652 km/s
True Right ascension
10h 02m 26s
True Declination
0° 00' 00"
Sunlit
Object was in daylight at epoch
Visualization orbit readout
Latitude
Unknown
Longitude
Unknown
Altitude
Unknown
Speed
Unknown
Apparent Right ascension
Unknown
Apparent Declination
Unknown
Sunlit
N/A
Visualization observer readout
Local Sidereal Time
02:11:12
Azimuth
Unknown
Elevation
Unknown
Doppler factor
Unknown
Orbital elements
Apogee altitude
438.255 km
Perigee altitude
430.84 km
Semi-major axis
6,812.685 km
Eccentricity
0.00054
Inclination
97.6925°
RAAN
150.6088°
Arg. of periapsis
343.3686°
True anomaly
16.75607°
Mean anomaly
16.7381°
Eccentric anomaly
16.74708°
Mean motion
3.85981 °/min
Orbital period
93.27 mins
BSTAR
0.00054225
Loading maneuver chart data...
Computing Atmospheric mass density...

Documentation

Showing up to 5 results
|